Location: ????????
(55.6773°N, 38.2421°E)
Time: 05:51:42
(UTC+00:00)

Cosmos 1315 Rocket - Pass Details

Date: 23 May 2024
Orbit: 515 x 542 km, 81.2° (Epoch: 23 June)

Event Time Altitude Azimuth Distance (km) Brightness Sun altitude
Exits shadow 00:04:42 - 223° (SW) 1,912 4.9 -6.4°
Reaches altitude 10° 00:05:05 10° 226° (SW) 1,768 4.7 -6.4°
Maximum altitude 00:08:41 35° 293° (WNW) 867 3.7 -6.1°
Drops below altitude 10° 00:12:20 10° 1° (N) 1,797 6.3 -5.8°
Sets 00:14:39 0° 10° (N) 2,697 7.6 -5.5°
